Погода в Труде

Россия / Кемеровская область (Кузбасс)     54°51′43″N   85°55′16″E
темп.,
°C
ветер,
м/с
пор.,
м/с
влажн.,
%
обл.,
%
осадки,
мм/ч
давл.,
гПа
погр.,
м
28 сентября, вт
вт2801:00+1в11905 0.1 102310
04:000ссв34945 0.0 102273
07:00−1ссв37955 0.0 1021155
10:00+4ссв47775 0.0 1021371
13:00+7ссв34635 0.0 1020955
16:00+8ссв22566 0.0 10191217
19:00+4ссз227246 0.0 102010
22:00+2с227956 0.0 102010
29 сентября, ср
ср2901:00+1в1184100 0.0 101910
04:00+1вюв22875 0.0 101724
07:000в358686 0.0 101671
10:00+5вюв4762100 0.0 1013292
13:00+9вюв5749100 0.0 1012835
16:00+4вюв4994100 3.3 1012380
19:00+5юв4796100 3.5 1012193
22:00+5ююв3696100 0.0 1012115
30 сентября, чт
чт3001:00+6ю389799 0.2 1011233
04:00+6ююз3897100 0.5 1012342
07:00+3юз4991100 0.6 1012349
10:00+4ююз6984100 0.0 1013663
13:00+4ююз61087100 0.0 1014834
16:00+5юз61085100 0.1 1014960
19:00+3юз61197100 0.8 1014676
22:00+3зюз5997100 0.4 1014926
1 октября, пт
пт101:00+3юз4787100 0.5 1014523
04:00+2юз4892100 0.1 1013277
07:00+1юз249499 0.1 1011103
10:00+3з238262 0.0 1010416
13:00+5зсз446687 0.3 10091153
16:00+5зсз5674100 0.3 1010930
19:00+3з3780100 0.3 1012266
22:00+2зюз4891100 0.0 1014411
2 октября, сб
сб201:00+1юз499599 0.1 1015509
04:00+2юз5986100 0.1 1015598
07:00+2ююз5991100 0.1 1016626
10:00+2ююз4998100 0.3 1017522
13:00+2юз4998100 0.6 1018568
16:00+2зюз5896100 0.3 1019616
19:00+2з3592100 0.6 1021365
22:00+1зюз3790100 0.1 1023414